Spokane Felts, WA

11:33 AM PDT on June 25, 2017 (GMT -0700)
Felts

Weather History for KSFF - May, 2013

Change the Weather History Date:

Monday, May 13, 2013

  Actual Average Record
Temperature  
Mean Temperature 56 °F 54 °F  
Max Temperature 66 °F 67 °F 82 °F (1997)
Min Temperature 46 °F 41 °F 30 °F (2006)
Degree Days  
Heating Degree Days 9 11  
Month to date heating degree days 58 165  
Since 1 July heating degree days 5370 6020  
Cooling Degree Days 0 0  
Month to date cooling degree days 26 0  
Year to date cooling degree days 26 0  
Growing Degree Days 8 (Base 50)    
Moisture  
Dew Point 45 °F    
Average Humidity 66    
Maximum Humidity 83    
Minimum Humidity 48    
Precipitation  
Precipitation 0.37 in 0.05 in 0.37 in (2013)
Month to date precipitation 0.37 0.64  
Year to date precipitation 4.74 6.78  
Sea Level Pressure  
Sea Level Pressure 29.97 in    
Wind  
Wind Speed 8 mph (SW)    
Max Wind Speed 20 mph    
Max Gust Speed 26 mph    
Visibility 9 miles    
Events Rain    
T = Trace of Precipitation, MM = Missing Value Source: NWS Daily Summary

Daily Weather History Graph

Daily Weather History Graph

Search for Another Location

Airport or City:

Trip Planner

Search our weather history database for the weather conditions in past years. The results will help you decide how hot, cold, wet, or windy it might be!

Date:

Astronomy

May. 13, 2013 Rise Set
Actual Time 5:13 AM PDT 8:18 PM PDT
Civil Twilight 4:37 AM PDT 8:54 PM PDT
Nautical Twilight 3:50 AM PDT 9:42 PM PDT
Astronomical Twilight 2:52 AM PDT 10:40 PM PDT
Moon 8:02 AM PDT (5/13) 11:30 PM PDT (5/13)
Length of Visible Light 16h 17m
Length of Day
15h 04m
Waxing Crescent, 13% of the Moon is Illuminated
May 13
Waxing Crescent
May 17
First Quarter
May 24
Full
May 31
Last Quarter
Jun 8
New

Hourly Weather History & Observations

Time (PDT) Temp. Dew Point Humidity Pressure Visibility Wind Dir Wind Speed Gust Speed Precip Events Conditions
12:53 AM 57.9 °F 46.9 °F 67% 29.96 in 10.0 mi Calm Calm - N/A   Mostly Cloudy
1:53 AM 62.1 °F 48.0 °F 60% 29.95 in 10.0 mi West 3.5 mph - N/A   Mostly Cloudy
2:53 AM 63.0 °F 46.0 °F 54% 29.95 in 10.0 mi SW 5.8 mph - N/A   Mostly Cloudy
3:53 AM 62.1 °F 45.0 °F 53% 29.96 in 10.0 mi SW 5.8 mph - N/A   Partly Cloudy
4:53 AM 60.1 °F 46.0 °F 60% 29.96 in 10.0 mi Variable 3.5 mph - N/A   Mostly Cloudy
5:53 AM 60.1 °F 45.0 °F 57% 29.98 in 10.0 mi SW 6.9 mph - N/A   Overcast
6:53 AM 61.0 °F 45.0 °F 56% 29.97 in 10.0 mi SW 4.6 mph - N/A   Overcast
7:53 AM 61.0 °F 45.0 °F 56% 29.98 in 10.0 mi SW 6.9 mph - N/A   Overcast
8:53 AM 63.0 °F 46.0 °F 54% 29.97 in 10.0 mi SSW 9.2 mph - N/A   Overcast
9:53 AM 64.0 °F 46.0 °F 52% 29.96 in 10.0 mi SSW 8.1 mph - 0.00 in   Overcast
10:53 AM 63.0 °F 46.9 °F 56% 29.96 in 10.0 mi West 9.2 mph - N/A   Overcast
11:53 AM 64.0 °F 45.0 °F 50% 29.95 in 10.0 mi West 9.2 mph 17.3 mph N/A   Overcast
1:53 PM 55.9 °F 50.0 °F 80% 29.96 in 3.0 mi WSW 6.9 mph - 0.10 in Rain Light Rain
2:53 PM 54.0 °F 48.0 °F 80% 29.96 in 4.0 mi WNW 9.2 mph - 0.08 in Rain Rain
3:53 PM 54.0 °F 48.0 °F 80% 29.96 in 7.0 mi SSW 3.5 mph - 0.11 in Rain Light Rain
4:53 PM 55.4 °F 46.4 °F 72% 29.96 in 10.0 mi SW 6.9 mph - N/A   Mostly Cloudy
5:07 PM 55.4 °F 48.2 °F 77% 29.96 in 10.0 mi SW 9.2 mph 17.3 mph N/A   Mostly Cloudy
5:53 PM 55.9 °F 46.0 °F 69% 29.95 in 10.0 mi SW 12.7 mph 23.0 mph N/A   Mostly Cloudy
6:25 PM 55.4 °F 46.4 °F 72% 29.95 in 10.0 mi SSW 10.4 mph 19.6 mph N/A   Mostly Cloudy
6:32 PM 55.4 °F 46.4 °F 72% 29.96 in 10.0 mi SSW 11.5 mph - N/A   Mostly Cloudy
6:53 PM 55.9 °F 46.0 °F 69% 29.93 in 10.0 mi SSW 15.0 mph 21.9 mph N/A   Mostly Cloudy
7:06 PM 55.4 °F 46.4 °F 72% 29.94 in 10.0 mi SSW 15.0 mph 23.0 mph N/A   Scattered Clouds
7:53 PM 55.0 °F 46.9 °F 74% 29.94 in 10.0 mi SSW 12.7 mph 18.4 mph N/A   Partly Cloudy
8:53 PM 55.9 °F 46.0 °F 69% 29.96 in 10.0 mi SSW 13.8 mph 21.9 mph N/A   Partly Cloudy
9:53 PM 57.0 °F 43.0 °F 59% 29.99 in 10.0 mi WSW 10.4 mph 16.1 mph N/A   Overcast
10:53 PM 53.1 °F 35.1 °F 50% 30.03 in 10.0 mi WSW 13.8 mph 23.0 mph N/A   Clear
11:53 PM 50.0 °F 32.0 °F 50% 30.07 in 10.0 mi West 10.4 mph - N/A   Clear